Вернуться в каталог

STARLINK-4048

АктивенСвязьVLEO
NORAD 52839·PAYLOAD·🇺🇸 United States

Запущен Jun 17, 2022 с Cape Canaveral Space Force Station

Loading…

Ближайшие Пролёты (ближайшие 24 часа)

TLE

СвежийSource: CelesTrak SupGP

Эпоха: Sep 15, 2026, 02:47 UTC

1 52839C 22062K   26258.11645833 -.00031302  00000+0 -10066-2 0  2586
2 52839  53.1579 253.8727 0001339  88.6939 328.5666 15.31717293    18

Отслеживайте STARLINK-4048 в реальном времени с AllMySat

Download on the App Store